Location: Düngen
(52.0952°N, 10.0219°E)
Time: 18:17:46
(UTC+00:00)

Cosmos 2369 Rocket - Pass Details

Date: 11 March 2026
Orbit: 829 x 850 km, 71.0° (Epoch: 20 April)

Event Time Altitude Azimuth Distance (km) Brightness Sun altitude
Rises 20:31:58 0° 226° (SW) 3,404 5.5 -29.0°
Reaches altitude 10° 20:34:29 10° 232° (SW) 2,471 4.8 -29.3°
Maximum altitude 20:40:01 52° 308° (NW) 1,046 2.9 -30.0°
Drops below altitude 10° 20:45:34 10° 25° (NNE) 2,472 4.8 -30.7°
Sets 20:48:06 0° 30° (NNE) 3,407 5.5 -30.9°
